Regional Weather Roundup
Issued by NWS

Home | Current Version | Previous Version | Text Only | Print | Product List | Glossary Off
Versions: 1 2 3 4 5 6 7 8 9 10 11 12 13 14 15 16 17 18 19 20 21 22 23 24 25 26 27 28 29 30 31 32 33 34 35 36 37 38 39 40 41 42 43 44 45 46 47 48 49 50

000
ASUS43 KTOP 211508
RWRKS

WEATHER ROUNDUP FOR KANSAS
NATIONAL WEATHER SERVICE GOODLAND KS
1000 AM CDT TUE OCT 21 2014

NOTE:  "FAIR" INDICATES FEW OR NO CLOUDS BELOW 12,000 FEET WITH NO
SIGNIFICANT WEATHER AND/OR OBSTRUCTIONS TO VISIBILITY.

KSZ001>006-013>018-027>032-041>047-211600-
NORTHWEST KANSAS

CITY           SKY/WX    TMP DP  RH WIND       PRES   REMARKS
GOODLAND       FOG       55  55 100 S20       30.07S VSB 1/4
HAYS           MOSUNNY   55  46  71 CALM      30.10R
HILL CITY      MOSUNNY   53  45  74 CALM      30.10R
RUSSELL        MOSUNNY   59  55  87 SE7       30.09R
$$

KSZ061>065-074>080-084>089-211600-
SOUTHWEST KANSAS

CITY           SKY/WX    TMP DP  RH WIND       PRES   REMARKS
DODGE CITY     FOG       57  57 100 S6        30.10R VSB<1/4
ELKHART          N/A     60  52  75 W7          N/A
GARDEN CITY    FOG       53  53 100 S5        30.09R VSB<1/4
GREAT BEND     MOSUNNY   57  50  77 SE8       30.10S
LIBERAL        CLOUDY    54  50  87 CALM      30.12R VSB 1/4
PRATT          SUNNY     61  55  82 SE8       30.10R
$$

KSZ066>073-081>083-090>101-211600-
SOUTHEAST KANSAS

CITY           SKY/WX    TMP DP  RH WIND       PRES   REMARKS
CHANUTE        SUNNY     62  58  86 SE3       30.13S
COFFEYVILLE    CLOUDY    56  56 100 CALM      30.14R FOG
HUTCHINSON     SUNNY     62  55  77 SE7       30.11S
MEDICINE LODGE   N/A     62  59  90 SE7       30.09R
NEWTON         MOSUNNY   63  54  72 SE7       30.14R
PARSONS        SUNNY     62  59  90 CALM      30.14R
WICHITA INTL   MOSUNNY   64  57  78 SE9       30.11R
WICHITA JABRA  SUNNY     63  56  78 SE8       30.12R
WICHITA MCCONL SUNNY     63  62  97 SE8       30.12R
WINFIELD       SUNNY     62  59  90 SE7       30.12S
$$

KSZ007>012-019>026-033>040-048>060-102>105-211600-
NORTHEAST KANSAS

CITY           SKY/WX    TMP DP  RH WIND       PRES   REMARKS
CONCORDIA      SUNNY     53  47  79 CALM      30.11S
EMPORIA        SUNNY     58  51  78 SE5       30.13R
LAWRENCE       SUNNY     52  48  86 CALM      30.14S FOG
MANHATTAN      SUNNY     52  47  83 CALM      30.12F
MARYSVILLE     SUNNY     59  46  63 S3        30.12S
OLATHE IND     SUNNY     62  51  67 CALM      30.14S
OLATHE EXE     SUNNY     63  50  62 CALM      30.13S
SALINA         SUNNY     57  50  77 CALM      30.12R
TOPEKA BILLARD SUNNY     53  49  86 CALM      30.14S
TOPEKA FORBES  SUNNY     57  49  74 CALM      30.13R
$$



USA.gov is the U.S. government's official web portal to all federal, state and local government web resources and services.